Weather History for Manteo, NC

Change the Weather History Date:

Monday, December 31, 2012

  Actual Average Record
Temperature  
Mean Temperature 38 °F -  
Max Temperature 49 °F 49 °F 75 °F (1973)
Min Temperature 29 °F 36 °F 19 °F (1993)
Degree Days  
Heating Degree Days 26    
Moisture  
Dew Point 31 °F    
Average Humidity 67    
Maximum Humidity 94    
Minimum Humidity 43    
Precipitation  
Precipitation 0.00 in - - ()
Sea Level Pressure  
Sea Level Pressure 30.27 in    
Wind  
Wind Speed 6 mph (WSW)    
Max Wind Speed 14 mph    
Max Gust Speed 17 mph    
Visibility 10 miles    
Events      
Averages and records for this station are not official NWS values.
T = Trace of Precipitation, MM = Missing Value Source: NWS Daily Summary

Daily Weather History Graph

Daily Weather History Graph

Search for Another Location

Airport:

Trip Planner

Search our weather history database for the weather conditions in past years. The results will help you decide how hot, cold, wet, or windy it might be!

Date:

Astronomy

Dec. 31, 2012 Rise Set
Actual Time 7:13 AM EST 4:59 PM EST
Civil Twilight 6:44 AM EST 5:27 PM EST
Nautical Twilight 6:12 AM EST 5:59 PM EST
Astronomical Twilight 5:41 AM EST 6:30 PM EST
Moon 8:20 PM EST (12/31) 8:59 AM EST (12/31)
Length of Visible Light 10h 43m
Length of Day
9h 46m
Waning Gibbous, 90% of the Moon is Illuminated
Dec 31
Waning Gibbous
Jan 4
Last Quarter
Jan 11
New
Jan 18
First Quarter
Jan 26
Full

Hourly Weather History & Observations

Time (EST) Temp. Windchill Dew Point Humidity Pressure Visibility Wind Dir Wind Speed Gust Speed Precip Events Conditions
12:15 AM 39.2 °F 35.9 °F 30.7 °F 72% 30.35 in 10.0 mi West 4.6 mph - N/A   Clear
12:35 AM 39.0 °F 34.8 °F 30.6 °F 72% 30.35 in 10.0 mi West 5.8 mph - N/A   Clear
1:15 AM 39.2 °F 34.2 °F 29.3 °F 68% 30.35 in 10.0 mi NW 6.9 mph - N/A   Clear
1:35 AM 40.3 °F 35.5 °F 26.8 °F 59% 30.35 in 10.0 mi NW 6.9 mph - N/A   Clear
1:55 AM 40.1 °F 35.3 °F 26.6 °F 59% 30.35 in 10.0 mi NW 6.9 mph - N/A   Clear
2:15 AM 39.4 °F 35.2 °F 26.4 °F 60% 30.36 in 10.0 mi NW 5.8 mph - N/A   Clear
2:35 AM 38.7 °F 34.3 °F 26.6 °F 62% 30.37 in 10.0 mi WNW 5.8 mph - N/A   Clear
2:55 AM 38.3 °F - 26.4 °F 62% 30.35 in 10.0 mi Calm Calm - N/A   Clear
3:15 AM 37.4 °F - 26.6 °F 65% 30.35 in 10.0 mi Calm Calm - N/A   Clear
3:35 AM 34.3 °F - 26.8 °F 74% 30.34 in 10.0 mi Calm Calm - N/A   Clear
3:55 AM 34.9 °F - 27.3 °F 74% 30.35 in 10.0 mi Calm Calm - N/A   Clear
4:15 AM 32.0 °F - 27.0 °F 82% 30.34 in 10.0 mi Calm Calm - N/A   Clear
4:35 AM 31.8 °F - 27.9 °F 85% 30.33 in - Calm Calm - N/A   Unknown
4:55 AM 31.6 °F - 28.2 °F 87% 30.34 in - Calm Calm - N/A   Unknown
5:15 AM 31.3 °F - 28.6 °F 90% 30.35 in - Calm Calm - N/A   Unknown
5:35 AM 31.6 °F - 28.2 °F 87% 30.35 in 10.0 mi Calm Calm - N/A   Clear
5:55 AM 29.7 °F - 27.0 °F 90% 30.34 in 10.0 mi Calm Calm - N/A   Clear
6:15 AM 30.4 °F - 28.4 °F 92% 30.34 in 10.0 mi Calm Calm - N/A   Clear
6:35 AM 30.6 °F 27.1 °F 29.1 °F 94% 30.34 in 10.0 mi West 3.5 mph - N/A   Clear
6:55 AM 30.9 °F 27.5 °F 28.9 °F 92% 30.35 in 10.0 mi West 3.5 mph - N/A   Clear
7:15 AM 36.1 °F 31.4 °F 30.9 °F 81% 30.34 in 10.0 mi West 5.8 mph - N/A   Clear
7:35 AM 36.5 °F 31.8 °F 31.1 °F 81% 30.35 in 10.0 mi West 5.8 mph - N/A   Clear
7:55 AM 37.0 °F 32.4 °F 31.1 °F 79% 30.35 in 10.0 mi West 5.8 mph - N/A   Clear
8:15 AM 37.8 °F 32.5 °F 30.4 °F 75% 30.35 in 10.0 mi West 6.9 mph - N/A   Clear
8:35 AM 36.1 °F 31.4 °F 29.8 °F 78% 30.35 in 10.0 mi West 5.8 mph - N/A   Clear
8:55 AM 37.6 °F 32.3 °F 29.7 °F 73% 30.35 in 10.0 mi West 6.9 mph - N/A   Clear
9:15 AM 37.9 °F 32.7 °F 29.8 °F 73% 30.36 in 10.0 mi West 6.9 mph - N/A   Clear
9:35 AM 38.8 °F 34.6 °F 30.9 °F 73% 30.37 in 10.0 mi WNW 5.8 mph - N/A   Clear
9:55 AM 38.3 °F 34.8 °F 30.0 °F 72% 30.38 in 10.0 mi West 4.6 mph - N/A   Clear
10:15 AM 39.0 °F 34.8 °F 29.5 °F 69% 30.37 in 10.0 mi West 5.8 mph - N/A   Clear
10:35 AM 39.4 °F 35.2 °F 29.1 °F 67% 30.37 in 10.0 mi West 5.8 mph - N/A   Clear
10:55 AM 40.6 °F 36.0 °F 29.5 °F 64% 30.34 in 10.0 mi WSW 6.9 mph - N/A   Clear
11:15 AM 42.6 °F 37.8 °F 29.8 °F 61% 30.34 in 10.0 mi WSW 8.1 mph - N/A   Clear
11:35 AM 44.2 °F 39.7 °F 27.7 °F 52% 30.32 in 10.0 mi WSW 8.1 mph - N/A   Clear
11:55 AM 45.7 °F 42.0 °F 25.2 °F 45% 30.30 in 10.0 mi WSW 6.9 mph - N/A   Clear
12:15 PM 45.9 °F 41.7 °F 25.9 °F 46% 30.29 in 10.0 mi WSW 8.1 mph - N/A   Clear
12:35 PM 47.7 °F - 25.9 °F 43% 30.29 in 10.0 mi SW 8.1 mph - N/A   Clear
12:55 PM 46.4 °F 41.5 °F 25.9 °F 45% 30.28 in 10.0 mi West 10.4 mph - N/A   Clear
1:15 PM 47.5 °F - 26.2 °F 44% 30.26 in 10.0 mi WSW 9.2 mph - N/A   Clear
1:35 PM 48.7 °F - 27.9 °F 44% 30.24 in 10.0 mi WSW 10.4 mph - N/A   Clear
1:55 PM 47.7 °F - 27.3 °F 45% 30.23 in 10.0 mi WSW 10.4 mph 17.3 mph N/A   Clear
2:15 PM 47.5 °F - 28.9 °F 49% 30.21 in 10.0 mi WSW 9.2 mph - N/A   Clear
2:35 PM 47.5 °F - 29.3 °F 49% 30.22 in 10.0 mi WSW 9.2 mph - N/A   Clear
2:55 PM 47.7 °F - 30.0 °F 50% 30.21 in 10.0 mi WSW 9.2 mph - N/A   Clear
3:15 PM 47.5 °F - 31.5 °F 54% 30.21 in 10.0 mi SW 9.2 mph - N/A   Clear
3:35 PM 47.7 °F - 30.9 °F 52% 30.22 in 10.0 mi WSW 9.2 mph - N/A   Clear
3:55 PM 47.5 °F - 30.6 °F 52% 30.22 in 10.0 mi WSW 10.4 mph - N/A   Clear
4:15 PM 46.9 °F - 31.6 °F 55% 30.22 in 10.0 mi SW 11.5 mph - N/A   Clear
4:35 PM 46.6 °F - 32.4 °F 58% 30.20 in 10.0 mi SSW 13.8 mph - N/A   Clear
4:55 PM 46.4 °F 40.7 °F 32.9 °F 59% 30.19 in 10.0 mi SW 12.7 mph - N/A   Clear
5:15 PM 46.2 °F 41.2 °F 33.4 °F 61% 30.19 in 10.0 mi SW 10.4 mph - N/A   Clear
5:35 PM 46.0 °F 41.9 °F 34.3 °F 64% 30.20 in 10.0 mi SW 8.1 mph - N/A   Clear
5:55 PM 45.9 °F 42.3 °F 34.3 °F 64% 30.19 in 10.0 mi SW 6.9 mph - N/A   Clear
6:15 PM 46.0 °F 42.5 °F 35.1 °F 66% 30.19 in 10.0 mi SW 6.9 mph - N/A   Clear
6:35 PM 46.0 °F 42.5 °F 35.1 °F 66% 30.19 in 10.0 mi SSW 6.9 mph - N/A   Clear
6:55 PM 46.0 °F 42.5 °F 36.0 °F 68% 30.19 in 10.0 mi SW 6.9 mph - N/A   Clear
7:15 PM 46.4 °F 42.9 °F 35.6 °F 66% 30.20 in 10.0 mi SW 6.9 mph - N/A   Clear
7:35 PM 45.9 °F 42.3 °F 36.0 °F 68% 30.21 in 10.0 mi SW 6.9 mph - N/A   Scattered Clouds
7:55 PM 45.9 °F 41.2 °F 35.8 °F 68% 30.18 in 10.0 mi SW 9.2 mph - N/A   Mostly Cloudy
8:15 PM 46.4 °F 40.7 °F 36.9 °F 69% 30.17 in 10.0 mi SSW 12.7 mph - N/A   Overcast
8:35 PM 46.4 °F 40.4 °F 36.7 °F 69% 30.16 in 10.0 mi SSW 13.8 mph - N/A   Overcast
8:55 PM 46.4 °F 41.5 °F 36.9 °F 69% 30.16 in 10.0 mi SW 10.4 mph - N/A   Overcast
9:15 PM 46.4 °F 41.9 °F 37.2 °F 70% 30.16 in 10.0 mi SW 9.2 mph - N/A   Overcast
9:35 PM 46.4 °F 41.9 °F 37.6 °F 71% 30.14 in 10.0 mi SSW 9.2 mph - N/A   Overcast
9:55 PM 46.6 °F - 38.3 °F 73% 30.14 in 10.0 mi SSW 8.1 mph - N/A   Overcast
10:15 PM 46.8 °F - 37.9 °F 71% 30.14 in 10.0 mi SW 6.9 mph - N/A   Overcast
10:35 PM 47.8 °F - 37.9 °F 69% 30.13 in 10.0 mi SW 8.1 mph - N/A   Overcast
11:15 PM 48.2 °F - 39.0 °F 71% 30.14 in 10.0 mi WSW 8.1 mph - N/A   Scattered Clouds
11:35 PM 48.4 °F - 39.4 °F 71% 30.13 in 10.0 mi WSW 10.4 mph - N/A   Scattered Clouds